Date String (YYYY-MM-DD hh:mm:ss) UTC,Instrument flags,absolute air pressure of the measurement (hPa),sample flow rate (lpm),inlet stack bypass flow (lpm),air temperature of the measurement (°C),ambient temperature measured by the external sensor (°C),aerosol sample conditioner tube jacket temperature (°C),OPC LED temperature (°C),internal box temperature (°C),relative humidity of the measurement (%),span deviation,mass concentration of particles derived from Lorenz-Mie calculation of OPC scattering (μg/m³),mass concentration of particles derived from Lorenz-Mie calculation of OPC scattering (μg/m³),mass concentration of particles derived from Lorenz-Mie calculation of OPC scattering (μg/m³)
DateTimeUTC,F1_M11,P_M11,Q1_M11,Q2_M11,T1_M11,T2_M11,T3_M11,T4_M11,T5_M11,U1_M11,ZSPAN_M11,X2_M11,X0_M11,X1_M11
2023-10-15 03:00:00,SystemResetWarning,0837.6,4.99,000.00,027.6,026.1,000.0,036.1,029.2,13.6,0003.3,0005.06,0009.07,0004.70
2023-10-15 03:01:00,SystemResetWarning,0837.6,5.00,000.00,027.6,026.1,000.0,036.1,029.2,13.6,0003.2,0005.05,0009.11,0004.69
2023-10-15 03:02:00,SystemResetWarning,0837.7,5.00,000.00,027.6,026.1,000.0,036.1,029.2,13.6,0003.1,0005.07,0009.23,0004.68
2023-10-15 03:03:00,SystemResetWarning,0837.7,5.00,000.00,027.6,026.0,000.0,036.1,029.2,13.6,0002.4,0005.08,0009.56,0004.66
2023-10-15 03:04:00,SystemResetWarning,0837.7,5.00,000.00,027.6,026.0,000.0,036.1,029.2,13.6,0002.0,0005.10,0009.72,0004.66
2023-10-15 03:05:00,SystemResetWarning,0837.7,5.00,000.00,027.6,026.0,000.0,036.1,029.2,13.6,0001.7,0005.10,0009.74,0004.65
2023-10-15 03:06:00,SystemResetWarning,0837.7,5.00,000.00,027.6,026.0,000.0,036.1,029.2,13.6,0001.8,0005.12,0009.75,0004.66
2023-10-15 03:07:00,SystemResetWarning,0837.7,4.99,000.00,027.6,026.0,000.0,036.1,029.2,13.6,0001.5,0005.12,0009.73,0004.66
2023-10-15 03:08:00,SystemResetWarning,0837.7,5.00,000.00,027.6,026.0,000.0,036.1,029.2,13.6,0001.0,0005.12,0009.66,0004.68
2023-10-15 03:09:00,SystemResetWarning,0837.8,5.00,000.00,027.6,026.0,000.0,036.1,029.2,13.6,0000.0,0005.16,0009.73,0004.72
2023-10-15 03:10:00,SystemResetWarning,0837.8,5.00,000.00,027.5,026.0,000.0,036.1,029.2,13.6,0000.0,0005.19,0009.46,0004.75
2023-10-15 03:11:00,SystemResetWarning,0837.7,5.01,000.00,027.5,026.0,000.0,036.1,029.2,13.6,0000.0,0005.21,0009.93,0004.75
2023-10-15 03:12:00,SystemResetWarning,0837.8,5.00,000.00,027.5,026.0,000.0,036.1,029.2,13.6,0000.0,0005.21,0009.93,0004.73
2023-10-15 03:13:00,SystemResetWarning,0837.8,5.00,000.00,027.5,025.9,000.0,036.1,029.2,13.6,0000.0,0005.18,0009.77,0004.73
2023-10-15 03:14:00,SystemResetWarning,0837.8,5.01,000.00,027.5,025.9,000.0,036.1,029.1,13.7,0000.0,0005.17,0010.60,0004.73
2023-10-15 03:15:00,SystemResetWarning,0837.8,5.00,000.00,027.5,025.9,000.0,036.0,029.1,13.7,0000.0,0005.13,0010.81,0004.73
2023-10-15 03:16:00,SystemResetWarning,0837.8,5.00,000.00,027.5,025.9,000.0,036.1,029.1,13.7,0000.0,0005.13,0010.80,0004.71
2023-10-15 03:17:00,SystemResetWarning,0837.8,4.99,000.00,027.5,025.9,000.0,036.0,029.1,13.7,0000.0,0005.10,0010.76,0004.69
2023-10-15 03:18:00,SystemResetWarning,0837.8,5.01,000.00,027.5,025.9,000.0,036.0,029.1,13.7,0000.0,0005.06,0010.58,0004.66
2023-10-15 03:19:00,SystemResetWarning,0837.8,5.00,000.00,027.5,025.9,000.0,036.0,029.1,13.7,0000.0,0005.06,0010.60,0004.63
2023-10-15 03:20:00,SystemResetWarning,0837.8,5.00,000.00,027.5,025.9,000.0,036.0,029.1,13.7,0000.0,0005.01,0010.48,0004.58
2023-10-15 03:21:00,SystemResetWarning,0837.8,5.00,000.00,027.5,025.9,000.0,036.0,029.1,13.7,0000.0,0004.97,0010.20,0004.53
2023-10-15 03:22:00,SystemResetWarning,0837.8,5.00,000.00,027.5,025.9,000.0,036.0,029.1,13.7,0000.0,0004.92,0009.50,0004.49
2023-10-15 03:23:00,SystemResetWarning,0837.8,5.00,000.00,027.5,025.9,000.0,036.0,029.1,13.7,0000.0,0004.92,0009.46,0004.47
2023-10-15 03:24:00,SystemResetWarning,0837.8,5.00,000.00,027.5,025.9,000.0,036.0,029.1,13.7,0000.0,0004.89,0010.11,0004.44
2023-10-15 03:25:00,SystemResetWarning,0837.8,5.01,000.00,027.5,025.9,000.0,036.0,029.1,13.7,0000.0,0004.86,0009.91,0004.41
2023-10-15 03:26:00,SystemResetWarning,0837.9,5.01,000.00,027.5,025.9,000.0,036.0,029.1,13.7,0000.0,0004.85,0009.62,0004.40
2023-10-15 03:27:00,SystemResetWarning,0837.9,5.00,000.00,027.5,025.9,000.0,036.0,029.1,13.7,0000.0,0004.84,0009.83,0004.41
2023-10-15 03:28:00,SystemResetWarning,0838.0,5.01,000.00,027.4,025.8,000.0,036.0,029.1,13.7,0000.0,0004.84,0009.93,0004.42
2023-10-15 03:29:00,SystemResetWarning,0838.0,5.00,000.00,027.4,025.8,000.0,035.9,029.0,13.7,0000.0,0004.86,0010.53,0004.43
2023-10-15 03:30:00,SystemResetWarning,0838.0,5.00,000.00,027.4,025.8,000.0,035.9,029.0,13.7,0000.0,0004.81,0010.63,0004.42
2023-10-15 03:31:00,SystemResetWarning,0838.0,5.00,000.00,027.4,025.8,000.0,035.9,029.0,13.7,0000.0,0004.80,0010.71,0004.43
2023-10-15 03:32:00,SystemResetWarning,0837.9,4.99,000.00,027.4,025.8,000.0,035.9,029.0,13.7,0000.0,0004.81,0010.73,0004.44
2023-10-15 03:33:00,SystemResetWarning,0838.0,5.00,000.00,027.4,025.8,000.0,035.9,029.0,13.7,0000.0,0004.81,0011.22,0004.45
2023-10-15 03:34:00,SystemResetWarning,0837.9,5.00,000.00,027.4,025.8,000.0,035.9,029.0,13.7,0000.0,0004.79,0011.40,0004.46
2023-10-15 03:35:00,SystemResetWarning,0838.0,5.00,000.00,027.4,025.8,000.0,035.9,029.0,13.7,0000.0,0004.79,0011.13,0004.46
2023-10-15 03:36:00,SystemResetWarning,0838.1,5.00,000.00,027.4,025.7,000.0,035.9,029.0,13.7,0000.0,0004.79,0010.70,0004.45
2023-10-15 03:37:00,SystemResetWarning,0838.1,4.99,000.00,027.4,025.7,000.0,035.9,029.0,13.8,0000.0,0004.78,0010.41,0004.44
2023-10-15 03:38:00,SystemResetWarning,0838.2,5.00,000.00,027.3,025.7,000.0,035.9,029.0,13.8,0000.0,0004.80,0010.36,0004.44
2023-10-15 03:39:00,SystemResetWarning,0838.1,5.00,000.00,027.3,025.7,000.0,035.9,029.0,13.8,0000.0,0004.77,0010.26,0004.43
2023-10-15 03:40:00,SystemResetWarning,0838.1,5.00,000.00,027.3,025.7,000.0,035.9,029.0,13.8,0000.0,0004.76,0009.63,0004.43
2023-10-15 03:41:00,SystemResetWarning,0838.2,5.00,000.00,027.3,025.7,000.0,035.9,029.0,13.8,0000.0,0004.75,0009.34,0004.42
2023-10-15 03:42:00,SystemResetWarning,0838.2,5.00,000.00,027.3,025.7,000.0,035.9,029.0,13.8,0000.0,0004.78,0009.15,0004.42
2023-10-15 03:43:00,SystemResetWarning,0838.2,5.01,000.00,027.3,025.7,000.0,035.8,028.9,13.8,0000.0,0004.78,0009.37,0004.41
2023-10-15 03:44:00,SystemResetWarning,0838.2,5.00,000.00,027.3,025.7,000.0,035.8,028.9,13.8,0000.0,0004.79,0009.16,0004.41
2023-10-15 03:45:00,SystemResetWarning,0838.1,5.00,000.00,027.3,025.7,000.0,035.8,029.0,13.8,0000.0,0004.79,0008.79,0004.40
2023-10-15 03:46:00,SystemResetWarning,0838.2,5.00,000.00,027.3,025.7,000.0,035.8,029.0,13.8,0000.0,0004.78,0008.67,0004.39
2023-10-15 03:47:00,SystemResetWarning,0838.2,5.00,000.00,027.3,025.6,000.0,035.8,028.9,13.9,0000.0,0004.76,0007.97,0004.38
2023-10-15 03:48:00,SystemResetWarning,0838.2,4.99,000.00,027.3,025.7,000.0,035.8,028.9,13.9,0000.0,0004.76,0008.01,0004.38
2023-10-15 03:49:00,SystemResetWarning,0838.2,5.00,000.00,027.3,025.7,000.0,035.8,028.9,13.9,0000.0,0004.74,0007.98,0004.37
2023-10-15 03:50:00,SystemResetWarning,0838.2,5.00,000.00,027.3,025.7,000.0,035.8,028.9,13.9,0000.0,0004.71,0007.98,0004.35
2023-10-15 03:51:00,SystemResetWarning,0838.2,5.00,000.00,027.3,025.7,000.0,035.8,028.9,13.9,0000.4,0004.73,0008.15,0004.34
2023-10-15 03:52:00,SystemResetWarning,0838.2,5.00,000.00,027.3,025.7,000.0,035.8,028.9,13.9,0000.7,0004.73,0008.23,0004.34
2023-10-15 03:53:00,SystemResetWarning,0838.2,5.00,000.00,027.2,025.7,000.0,035.8,028.9,13.9,0000.0,0004.71,0008.24,0004.34
2023-10-15 03:54:00,SystemResetWarning,0838.2,5.00,000.00,027.2,025.7,000.0,035.8,028.9,13.9,0000.4,0004.71,0008.43,0004.34
2023-10-15 03:55:00,SystemResetWarning,0838.2,5.00,000.00,027.2,025.7,000.0,035.8,028.9,13.9,0000.0,0004.70,0008.72,0004.33
2023-10-15 03:56:00,SystemResetWarning,0838.2,5.00,000.00,027.2,025.6,000.0,035.7,028.9,13.9,0000.0,0004.72,0009.73,0004.34
2023-10-15 03:57:00,SystemResetWarning,0838.2,5.00,000.00,027.2,025.6,000.0,035.7,028.9,13.9,0000.0,0004.73,0010.29,0004.34
2023-10-15 03:58:00,SystemResetWarning,0838.2,5.00,000.00,027.2,025.6,000.0,035.7,028.9,13.9,0000.0,0004.74,0010.32,0004.37
2023-10-15 03:59:00,SystemResetWarning,0838.2,5.00,000.00,027.2,025.6,000.0,035.7,028.9,13.9,0000.0,0004.73,0010.23,0004.38
